Location: Burgerwiesen
(48.6500°N, 15.6167°E)
Time: 06:16:21
(UTC+00:00)

ATLAS 5 CENTAUR R/B - Pass Details

Date: 09 April 2020
Orbit: 543 x 1116 km, 63.4° (Epoch: 01 May)

Event Time Altitude Azimuth Distance (km) Brightness Sun altitude
Rises 18:15:47 0° 199° (SSW) 2,715 4.9 -6.4°
Reaches altitude 10° 18:17:58 10° 192° (SSW) 1,856 3.9 -6.7°
Maximum altitude 18:21:52 42° 122° (ESE) 865 1.9 -7.3°
Drops below altitude 10° 18:26:14 10° 52° (NE) 2,079 4.0 -8.0°
Sets 18:28:48 0° 45° (NE) 3,086 4.9 -8.4°
